User: anonymous   Login
Location: Caltech
(34.1382°N, 118.1253°W)
Time: 02:58:35
(UTC-07:00)
Language:

Iridium 65 - Orbit

View from above orbital plane
View from above orbital plane
View from above satellite
View from above satellite

Ground track
Ground track

The orbit data is extracted from the following two-line orbital elements,

1 25288U 98021D   16182.45985205 -.00000055  00000-0 -26594-4 0  9993
2 25288  86.3946  10.9000 0002273  83.1035 277.0420 14.34214602954600
Epoch (UTC): 30 June 2016 11:02:11
Eccentricity: 0.0002273
inclination: 86.3946°
perigee height: 776 km
apogee height: 779 km
right ascension of ascending node: 10.9000°
argument of perigee: 83.1035°
revolutions per day: 14.34214602
mean anomaly at epoch: 277.0420°
orbit number at epoch: 95460

The dashed part of the orbit path shows where the satellite is in the earth's shadow,  

DLR